This demonstration page uses our WeatherBlox Daily Observations layout. Learn more.

Left ArrowRight Arrow

Hourly Observations for December 3, 2022

Temp ( °F °C ) Dew Point ( °F °C ) Humidity (%) Winds ( mph kmh ) Pressure ( in mb ) Visibility ( mi km ) Precip ( " mm )
12:55 am 00:55 Clear 18 -7.8 5 -14.9 57 57 NW 15 24 30.42 1030 10 16 0.00 0.00
1:55 am 01:55 Clear 17 -8.5 4 -15.7 56 56 NW 18 30 30.44 1031 10 16 0.00 0.00
2:55 am 02:55 Clear 15 -9.2 1 -17.1 52 52 NW 17 28 30.49 1033 10 16 0.00 0.00
3:55 am 03:55 Clear 14 -9.8 1 -17.4 54 54 NW 15 24 30.52 1034 10 16 0.00 0.00
4:55 am 04:55 Clear 13 -10.3 -1 -18.1 53 53 NW 14 22 30.58 1036 10 16 0.00 0.00
5:55 am 05:55 Clear 12 -10.9 1 -17.2 60 60 NW 12 19 30.62 1037 10 16 0.00 0.00
6:55 am 06:55 Clear 12 -10.9 1 -17.4 59 59 NW 8 13 30.62 1037 10 16 0.00 0.00
7:55 am 07:55 Sunny 12 -11.3 0 -17.6 59 59 NW 9 15 30.65 1038 10 16 0.00 0.00
8:55 am 08:55 Sunny 15 -9.5 3 -16.3 57 57 NW 12 19 30.67 1039 10 16 0.00 0.00
9:55 am 09:55 Sunny 18 -7.9 4 -15.8 53 53 NW 6 9 30.67 1039 10 16 0.00 0.00
10:55 am 10:55 Sunny 21 -6.2 4 -15.7 47 47 NW 6 9 30.68 1039 10 16 0.00 0.00
11:55 am 11:55 Sunny 24 -4.3 4 -15.6 41 41 NW 3 6 30.63 1037 10 16 0.00 0.00
12:55 pm 12:55 Sunny 26 -3.2 4 -15.5 38 38 WSW 6 9 30.58 1036 10 16 0.00 0.00
1:55 pm 13:55 Sunny 29 -1.9 6 -14.7 37 37 SW 5 7 30.54 1034 10 16 0.00 0.00
2:55 pm 14:55 Mostly Sunny 32 0 7 -14 34 34 SSW 9 15 30.52 1034 10 16 0.00 0.00
3:55 pm 15:55 Sunny 31 -0.4 7 -14 35 35 S 13 20 30.51 1033 10 16 0.00 0.00
4:55 pm 16:55 Sunny 30 -1.3 8 -13.5 39 39 S 10 17 30.50 1033 10 16 0.00 0.00
5:55 pm 17:55 Clear 27 -2.9 8 -13.5 44 44 S 6 9 30.50 1033 10 16 0.00 0.00
6:55 pm 18:55 Mostly Clear 23 -5.2 7 -13.8 51 51 ESE 3 6 30.46 1032 10 16 0.00 0.00
7:55 pm 19:55 Cloudy 26 -3.4 9 -12.9 48 48 S 7 11 30.45 1031 10 16 0.00 0.00
8:55 pm 20:55 Mostly Clear 26 -3.1 9 -12.8 47 47 S 9 15 30.43 1031 10 16 0.00 0.00
9:55 pm 21:55 Clear 24 -4.4 9 -12.8 52 52 SSE 6 9 30.41 1030 10 16 0.00 0.00
10:55 pm 22:55 Clear 23 -5.1 10 -12.5 56 56 SE 5 7 30.40 1030 10 16 0.00 0.00
11:55 pm 23:55 Clear 23 -4.8 11 -11.8 58 58 S 7 11 30.38 1029 10 16 0.00 0.00

Powered by AerisWeather